Retour au catalogue

ONEWEB-0368

ActifCommunicationsPO
NORAD 49294·PAYLOAD·🇬🇧 United Kingdom

Lancé Oct 14, 2021 depuis Vostochny Cosmodrome

Loading…

Prochains Passages (prochaines 24 heures)

TLE

FraisSource: CelesTrak SupGP

Époque: Sep 14, 2026, 15:06 UTC

1 49294C 21090R   26257.62935602 -.00001378  00000+0 -33931-2 0  2573
2 49294  87.9142 256.6036 0002712  84.5004  27.3393 13.20774279    12

Suivez ONEWEB-0368 en temps réel avec AllMySat

Download on the App Store